Bluffton, MN

6:15 PM CST on February 06, 2016 (GMT -0600)
Wadena Municipal

Weather History for KADC - April, 2013

Change the Weather History Date:

Saturday, April 20, 2013

  Actual Average Record
Temperature  
Mean Temperature 22 °F -  
Max Temperature 33 °F 58 °F 85 °F (1987)
Min Temperature 12 °F 33 °F 12 °F (2013)
Degree Days  
Heating Degree Days 42    
Moisture  
Dew Point 13 °F    
Average Humidity 63    
Maximum Humidity 100    
Minimum Humidity 38    
Precipitation  
Precipitation 0.00 in - - ()
Sea Level Pressure  
Sea Level Pressure 30.18 in    
Wind  
Wind Speed 5 mph (South)    
Max Wind Speed 10 mph    
Max Gust Speed -    
Visibility 10 miles    
Events      
Averages and records for this station are not official NWS values.
T = Trace of Precipitation, MM = Missing Value Source: NWS Daily Summary

Daily Weather History Graph

Daily Weather History Graph

Search for Another Location

Airport or City:

Trip Planner

Search our weather history database for the weather conditions in past years. The results will help you decide how hot, cold, wet, or windy it might be!

Date:

Astronomy

Apr. 20, 2013 Rise Set
Actual Time 6:24 AM CDT 8:15 PM CDT
Civil Twilight 5:52 AM CDT 8:47 PM CDT
Nautical Twilight 5:13 AM CDT 9:27 PM CDT
Astronomical Twilight 4:30 AM CDT 10:10 PM CDT
Moon 2:42 PM CDT (4/20) 3:33 AM CDT (4/20)
Length of Visible Light 14h 55m
Length of Day
13h 51m
Waxing Gibbous, 71% of the Moon is Illuminated
Apr 20
Waxing Gibbous
Apr 25
Full
May 2
Last Quarter
May 9
New
May 17
First Quarter

Hourly Weather History & Observations

Time (CDT) Temp. Windchill Dew Point Humidity Pressure Visibility Wind Dir Wind Speed Gust Speed Precip Events Conditions
2:52 AM 17.6 °F 9.3 °F 12.2 °F 79% 30.05 in 10.0 mi WNW 5.8 mph - N/A   Clear
3:15 AM 17.6 °F 9.3 °F 10.4 °F 73% 30.05 in 10.0 mi WNW 5.8 mph - N/A   Clear
3:34 AM 15.8 °F 7.2 °F 10.4 °F 79% 30.06 in 10.0 mi WNW 5.8 mph - N/A   Clear
3:53 AM 15.8 °F 8.6 °F 12.2 °F 86% 30.07 in 10.0 mi WNW 4.6 mph - N/A   Clear
4:15 AM 15.8 °F 10.2 °F 10.4 °F 79% 30.07 in 10.0 mi West 3.5 mph - N/A   Clear
4:35 AM 14.0 °F - 10.4 °F 86% 30.08 in 10.0 mi Calm Calm - N/A   Clear
4:53 AM 14.0 °F 8.2 °F 10.4 °F 86% 30.09 in 10.0 mi West 3.5 mph - N/A   Clear
5:15 AM 12.2 °F 6.1 °F 10.4 °F 92% 30.10 in 10.0 mi West 3.5 mph - N/A   Clear
5:35 AM 12.2 °F 4.3 °F 10.4 °F 92% 30.11 in 10.0 mi West 4.6 mph - N/A   Clear
5:52 AM 12.2 °F 4.3 °F 10.4 °F 92% 30.11 in 10.0 mi West 4.6 mph - N/A   Clear
6:14 AM 12.2 °F 2.9 °F 10.4 °F 92% 30.12 in 10.0 mi West 5.8 mph - N/A   Clear
6:35 AM 12.2 °F 1.7 °F 10.4 °F 92% 30.13 in 10.0 mi West 6.9 mph - N/A   Clear
6:53 AM 12.2 °F 2.9 °F 12.2 °F 100% 30.13 in 10.0 mi West 5.8 mph - N/A   Clear
7:15 AM 14.0 °F 6.5 °F 12.2 °F 93% 30.14 in 10.0 mi West 4.6 mph - N/A   Clear
7:34 AM 14.0 °F 8.2 °F 12.2 °F 93% 30.15 in 10.0 mi NW 3.5 mph - N/A   Clear
7:53 AM 14.0 °F - 12.2 °F 93% 30.15 in 10.0 mi Calm Calm - N/A   Clear
8:14 AM 15.8 °F 8.6 °F 14.0 °F 93% 30.17 in 10.0 mi WNW 4.6 mph - N/A   Clear
8:34 AM 17.6 °F 12.3 °F 14.0 °F 86% 30.18 in 10.0 mi NW 3.5 mph - N/A   Clear
8:53 AM 19.4 °F - 14.0 °F 80% 30.18 in 10.0 mi Calm Calm - N/A   Clear
9:14 AM 19.4 °F - 14.0 °F 80% 30.18 in 10.0 mi Calm Calm - N/A   Clear
9:35 AM 21.2 °F - 14.0 °F 74% 30.18 in 10.0 mi Calm Calm - N/A   Clear
9:53 AM 23.0 °F - 15.8 °F 74% 30.18 in 10.0 mi Calm Calm - N/A   Clear
10:14 AM 24.8 °F - 14.0 °F 64% 30.19 in 10.0 mi Calm Calm - N/A   Clear
10:35 AM 26.6 °F - 12.2 °F 55% 30.20 in 10.0 mi Calm Calm - N/A   Clear
10:52 AM 26.6 °F - 12.2 °F 55% 30.20 in 10.0 mi Calm Calm - N/A   Clear
11:15 AM 28.4 °F 23.3 °F 12.2 °F 51% 30.21 in 10.0 mi SSE 4.6 mph - N/A   Clear
11:35 AM 28.4 °F 24.6 °F 12.2 °F 51% 30.21 in 10.0 mi SE 3.5 mph - N/A   Clear
11:52 AM 30.2 °F 26.7 °F 12.2 °F 47% 30.21 in 10.0 mi SSE 3.5 mph - N/A   Clear
12:15 PM 30.2 °F 26.7 °F 10.4 °F 44% 30.20 in 10.0 mi SSE 3.5 mph - N/A   Clear
12:35 PM 30.2 °F 24.3 °F 10.4 °F 44% 30.20 in 10.0 mi ESE 5.8 mph - N/A   Clear
12:52 PM 30.2 °F 26.7 °F 10.4 °F 44% 30.21 in 10.0 mi SSE 3.5 mph - N/A   Clear
1:14 PM 32.0 °F 26.4 °F 10.4 °F 41% 30.20 in 10.0 mi South 5.8 mph - N/A   Clear
1:35 PM 32.0 °F 25.6 °F 10.4 °F 41% 30.20 in 10.0 mi SSE 6.9 mph - N/A   Clear
1:53 PM 32.0 °F 24.8 °F 8.6 °F 38% 30.20 in 10.0 mi SSE 8.1 mph - N/A   Clear
2:15 PM 33.8 °F 27.7 °F 10.4 °F 38% 30.20 in 10.0 mi SSE 6.9 mph - N/A   Clear
2:34 PM 33.8 °F 27.0 °F 10.4 °F 38% 30.20 in 10.0 mi SSE 8.1 mph - N/A   Clear
2:53 PM 33.8 °F 27.0 °F 10.4 °F 38% 30.20 in 10.0 mi SSE 8.1 mph - N/A   Clear
3:15 PM 33.8 °F 26.4 °F 12.2 °F 41% 30.21 in 10.0 mi South 9.2 mph - N/A   Clear
3:35 PM 33.8 °F 25.8 °F 10.4 °F 38% 30.21 in 10.0 mi South 10.4 mph - N/A   Clear
3:53 PM 33.8 °F 26.4 °F 12.2 °F 41% 30.21 in 10.0 mi South 9.2 mph - N/A   Clear
4:15 PM 33.8 °F 25.8 °F 10.4 °F 38% 30.21 in 10.0 mi South 10.4 mph - N/A   Clear
4:35 PM 32.0 °F 23.6 °F 12.2 °F 44% 30.21 in 10.0 mi SSW 10.4 mph - N/A   Clear
4:53 PM 32.0 °F 23.6 °F 10.4 °F 41% 30.21 in 10.0 mi South 10.4 mph - N/A   Clear
5:15 PM 32.0 °F 24.2 °F 12.2 °F 44% 30.21 in 10.0 mi South 9.2 mph - N/A   Clear
5:35 PM 32.0 °F 24.8 °F 12.2 °F 44% 30.20 in 10.0 mi SSE 8.1 mph - N/A   Clear
5:53 PM 32.0 °F 24.8 °F 15.8 °F 51% 30.20 in 10.0 mi SSE 8.1 mph - N/A   Clear
6:15 PM 32.0 °F 25.6 °F 17.6 °F 55% 30.20 in 10.0 mi SSE 6.9 mph - N/A   Clear
6:34 PM 30.2 °F 21.9 °F 15.8 °F 55% 30.20 in 10.0 mi SSE 9.2 mph - N/A   Clear
6:53 PM 30.2 °F 21.9 °F 15.8 °F 55% 30.20 in 10.0 mi SSE 9.2 mph - N/A   Clear
7:15 PM 30.2 °F 21.3 °F 15.8 °F 55% 30.20 in 10.0 mi South 10.4 mph - N/A   Clear
7:35 PM 30.2 °F 21.9 °F 15.8 °F 55% 30.20 in 10.0 mi South 9.2 mph - N/A   Clear
7:53 PM 28.4 °F 21.2 °F 15.8 °F 59% 30.20 in 10.0 mi SSE 6.9 mph - N/A   Clear
8:15 PM 26.6 °F 21.2 °F 15.8 °F 64% 30.21 in 10.0 mi SSE 4.6 mph - N/A   Clear
8:53 PM 26.6 °F 20.0 °F 15.8 °F 64% 30.21 in 10.0 mi SE 5.8 mph - N/A   Clear
9:15 PM 26.6 °F 21.2 °F 15.8 °F 64% 30.22 in 10.0 mi SE 4.6 mph - N/A   Clear
9:35 PM 26.6 °F 20.0 °F 15.8 °F 64% 30.22 in 10.0 mi SE 5.8 mph - N/A   Clear
9:53 PM 26.6 °F 21.2 °F 15.8 °F 64% 30.22 in 10.0 mi SE 4.6 mph - N/A   Clear
10:15 PM 26.6 °F 20.0 °F 15.8 °F 64% 30.22 in 10.0 mi SE 5.8 mph - N/A   Clear
10:34 PM 26.6 °F 18.2 °F 15.8 °F 64% 30.22 in 10.0 mi SSE 8.1 mph - N/A   Clear
10:52 PM 26.6 °F 17.5 °F 15.8 °F 64% 30.22 in 10.0 mi SSE 9.2 mph - N/A   Clear
11:14 PM 26.6 °F 16.8 °F 14.0 °F 59% 30.22 in 10.0 mi SSE 10.4 mph - N/A   Clear
11:35 PM 26.6 °F 17.5 °F 14.0 °F 59% 30.22 in 10.0 mi SSE 9.2 mph - N/A   Mostly Cloudy
11:53 PM 24.8 °F 15.3 °F 14.0 °F 64% 30.22 in 10.0 mi SSE 9.2 mph - N/A   Scattered Clouds